Location: La Fredeussais
(48.1780°N, 1.3980°W)
Time: 07:28:26
(UTC+00:00)

STARLINK-2701 - Pass Details

Date: 30 July 2021
Orbit: 546 x 548 km, 53.1° (Epoch: 19 September)

Event Time Altitude Azimuth Distance (km) Brightness Sun altitude
Rises 20:45:54 0° 293° (WNW) 2,718 8.8 -9.2°
Reaches altitude 10° 20:48:21 10° 282° (WNW) 1,821 7.3 -9.5°
Maximum altitude 20:51:54 28° 223° (SW) 1,047 5.0 -9.9°
Enters shadow 20:55:19 11° 164° (SSE) 1,776 5.7 -10.4°
